Home   Weather   Piraeus   Past weeks

Flag for Greece Past Weather in Piraeus, Greece — Yesterday and Last 2 Weeks

Now
81 °F

Clear.


Feels Like: 81 °F
Forecast: 81 / 92 °F
Wind: 5 mph from North

Location: Elefsis Airport

Current Time: Aug 17, 2017 at 4:56:12 am

Latest Report: Aug 17, 2017 at 3:50 am


Visibility: 10 mi

Pressure: 29.83 "Hg

Humidity: 45%

Dew Point: 57 °F

Location of PiraeusLocation

Past Weather in Piraeus — Graph

°F

Piraeus Temperature Yesterday

Maximum temperature yesterday: 91 °F (at 2:50 pm)
Minimum temperature yesterday: 77 °F (at 3:20 am)
Average temperature yesterday: 85 °F

High & Low Weather Summary for the Past Weeks

 TemperatureHumidityPressure
High104 °F (Aug 7, 2:20 pm)61% (Aug 14, 5:50 am)30.01 "Hg (Aug 14, 5:50 am)
Low75 °F (Aug 14, 5:50 am)13% (Aug 14, 5:20 pm)29.65 "Hg (Aug 13, 4:20 am)
Average88 °F35%29.86 "Hg
* Reported Aug 2 2:20 am — Aug 17 2:50 am, Piraeus. Weather by CustomWeather, © 2017

Note: Actual official high and low records may vary slightly from our data, if they occured in-between our weather recording intervals... More about our weather records

Advertising

Piraeus Weather History for the Previous 24 Hours

Scroll right to see more
 ConditionsComfort  
Time TempWeatherWind HumidityBarometerVisibility
2:50 am
Thu, Aug 17
81 °FClear.5 mph45%29.83 "Hg10 mi
2:20 am81 °FClear.5 mph48%29.86 "Hg10 mi
1:50 am81 °FClear.5 mph45%29.86 "Hg10 mi
1:20 am82 °FClear.6 mph42%29.86 "Hg10 mi
12:50 am82 °FClear.6 mph40%29.86 "Hg10 mi
12:20 am82 °FClear.5 mph40%29.86 "Hg10 mi
11:50 pm
Wed, Aug 16
84 °FClear.5 mph37%29.86 "Hg10 mi
11:20 pm84 °FClear.6 mph35%29.86 "Hg10 mi
10:50 pm84 °FClear.5 mph35%29.86 "Hg10 mi
10:20 pm82 °FClear.5 mph37%29.86 "Hg10 mi
9:50 pm84 °FClear.5 mph35%29.86 "Hg10 mi
9:20 pm88 °FClear.5 mph31%29.86 "Hg10 mi
8:50 pm88 °FClear.5 mph31%29.83 "Hg10 mi
8:20 pm88 °FPassing clouds.10 mph31%29.83 "HgN/A
7:50 pm88 °FPassing clouds.10 mph31%29.83 "HgN/A
7:20 pm90 °FPassing clouds.10 mph27%29.86 "HgN/A
6:50 pm90 °FPassing clouds.15 mph27%29.86 "HgN/A
6:20 pm91 °FPassing clouds.15 mph26%29.86 "HgN/A
5:50 pm91 °FPassing clouds.14 mph28%29.86 "HgN/A
5:20 pm91 °FPassing clouds.17 mph28%29.86 "HgN/A
4:50 pm91 °FScattered clouds.14 mph30%29.86 "HgN/A
4:20 pm91 °FScattered clouds.15 mph30%29.86 "HgN/A
3:50 pm91 °FScattered clouds.17 mph32%29.86 "HgN/A
3:20 pm91 °FScattered clouds.16 mph32%29.86 "HgN/A
2:50 pm91 °FScattered clouds.17 mph32%29.89 "HgN/A
2:20 pm90 °FScattered clouds.13 mph36%29.89 "HgN/A
1:50 pm90 °FScattered clouds.17 mph33%29.89 "HgN/A
1:20 pm90 °FPassing clouds.15 mph33%29.89 "HgN/A
12:50 pm90 °FPassing clouds.17 mph33%29.89 "HgN/A
12:20 pm90 °FPassing clouds.23 mph31%29.89 "HgN/A
11:50 am88 °FPassing clouds.20 mph35%29.89 "HgN/A
11:20 am88 °FPassing clouds.18 mph35%29.89 "HgN/A
10:50 am88 °FPassing clouds.15 mph35%29.92 "HgN/A
10:20 am86 °FPassing clouds.13 mph43%29.92 "HgN/A
9:50 am84 °FPassing clouds.13 mph43%29.89 "HgN/A
9:20 am84 °FPassing clouds.9 mph45%29.89 "HgN/A
8:50 am82 °FSunny.12 mph48%29.92 "Hg10 mi
8:20 am81 °FPassing clouds.9 mph51%29.92 "HgN/A
7:50 am79 °FPassing clouds.8 mph54%29.89 "HgN/A
7:20 am79 °FPassing clouds.8 mph54%29.89 "HgN/A
6:50 am77 °FPassing clouds.9 mph57%29.89 "HgN/A
6:20 am77 °FPassing clouds.7 mph54%29.89 "HgN/A
5:50 am77 °FPassing clouds.7 mph54%29.89 "HgN/A
5:20 am77 °FPassing clouds.8 mph54%29.89 "HgN/A
4:20 am79 °FPassing clouds.7 mph51%29.89 "HgN/A
Weather by CustomWeather, © 2017

See weather overviewHow to use our weather pages